Wind_Speed
48 48 49 50 51 51 51 51 50 49 48 48 47 47 46 46 45 44 43 43 42 41 41 40 39 39 38 38 37 38 37 37 36 36 35 34 34 33 32 32 31 31 30 30 29 28 28 28 28 27 27 27 26 25 24 24 23 23 23 22 21 21 21 22 23 23 22 22 22 22 20 20 22 23 23 23 21 19 17 17 19 21 21 20 19 19 20 21
48 49 49 50 51 52 52 52 52 51 50 49 48 48 48 47 46 45 45 44 43 42 41 41 40 39 38 37 36 37 36 35 35 35 34 34 33 33 32 32 31 31 31 30 30 29 29 29 29 28 28 28 27 26 25 25 24 24 23 23 22 21 21 22 23 23 22 23 24 23 21 20 22 23 23 24 23 21 19 18 19 22 22 22 21 20 21 22
48 49 50 50 51 52 53 53 53 53 53 51 50 49 49 48 47 47 46 45 45 44 43 42 41 40 39 38 37 37 37 36 36 36 35 34 34 33 33 32 32 32 32 31 30 30 30 30 30 30 29 29 28 27 26 26 26 25 25 24 24 22 22 23 24 23 23 23 24 24 23 22 23 24 24 25 25 23 22 20 19 21 23 23 23 23 22 22
49 50 50 50 51 52 53 53 54 54 54 54 53 51 50 49 49 48 47 47 46 45 45 44 43 42 40 39 38 38 38 37 37 37 36 35 35 34 34 34 33 33 33 32 31 31 32 32 32 31 31 30 29 28 27 27 27 26 26 25 24 23 23 24 25 24 23 23 24 25 24 23 24 24 24 25 26 26 25 22 20 21 23 24 24 24 24 24
50 50 50 51 51 52 52 53 54 55 55 56 55 54 53 52 50 49 49 48 48 47 46 45 44 43 42 41 40 40 39 38 38 38 36 36 36 36 35 35 35 35 34 33 33 33 33 34 33 32 33 32 30 30 29 28 28 27 27 26 25 24 24 24 26 25 24 23 24 24 25 25 25 25 25 25 25 27 28 26 23 22 23 25 25 26 25 26
52 52 51 51 52 52 52 53 54 55 56 56 56 56 55 54 53 52 51 50 49 48 48 47 46 45 44 43 42 42 41 40 40 39 38 38 37 37 37 37 36 36 36 35 35 35 35 35 34 34 34 34 32 31 30 30 29 29 28 27 26 26 24 25 26 26 26 25 24 24 25 26 27 27 26 25 25 27 30 29 26 24 24 25 26 27 27 27
54 53 53 52 52 53 53 53 53 54 55 56 56 56 57 56 56 54 53 52 51 50 50 49 48 47 46 45 44 44 43 42 42 40 40 40 39 39 38 38 38 38 37 37 37 37 36 35 35 35 36 35 34 32 32 31 31 30 29 28 28 28 25 25 25 26 27 27 26 25 25 26 28 28 27 26 25 28 32 31 29 27 25 26 27 28 28 28
57 55 54 53 53 53 54 54 54 54 55 55 56 56 56 57 57 56 56 55 54 53 52 51 50 49 49 48 47 46 45 44 43 42 42 42 41 41 40 40 40 39 39 39 39 39 38 37 37 37 37 37 35 34 33 33 33 32 30 29 29 30 28 25 25 26 27 28 27 26 26 28 29 29 28 26 26 29 32 32 31 29 28 27 28 28 29 29
59 57 56 55 54 54 54 55 55 55 55 55 55 55 56 56 56 56 57 57 56 56 55 54 53 52 51 50 49 48 47 47 45 45 45 44 43 42 42 42 42 41 41 41 41 40 40 39 38 38 38 39 37 36 35 35 35 34 32 31 30 31 31 28 26 26 28 29 28 28 27 29 30 30 29 27 28 30 31 32 32 31 30 29 29 29 30 30
61 60 58 56 55 55 55 55 56 56 56 56 56 56 55 55 55 56 56 56 57 57 56 56 55 54 53 52 51 50 50 49 48 48 47 46 45 44 44 44 44 44 44 44 43 43 42 41 40 40 39 40 39 38 37 36 37 35 34 33 32 31 31 30 28 27 29 31 30 29 28 30 31 31 31 30 30 31 31 32 33 32 32 32 31 31 31 31
63 62 60 58 57 56 56 55 56 56 57 57 57 57 56 55 55 55 55 55 56 56 56 56 56 55 54 54 53 52 52 51 50 50 49 48 47 46 46 45 46 46 46 45 45 44 44 43 42 41 41 42 41 41 40 38 38 37 36 35 34 32 31 31 30 30 31 32 31 29 29 31 31 32 33 32 32 32 32 33 34 34 34 34 33 33 33 33
64 64 62 60 59 58 57 56 56 56 57 57 58 58 57 57 56 55 54 54 54 54 55 55 55 55 55 55 54 54 54 53 52 52 51 50 49 48 48 47 48 48 48 47 46 46 46 45 44 43 43 44 43 43 42 41 40 39 38 37 35 33 32 32 33 33 33 33 32 28 30 33 33 33 34 34 34 34 34 35 35 35 35 35 35 35 35 35
66 65 64 63 61 60 59 58 57 57 56 57 57 58 58 58 58 56 55 54 54 54 54 54 54 54 54 54 54 54 54 54 54 53 52 52 50 50 49 49 49 50 50 49 48 48 48 48 47 46 45 45 45 45 44 44 43 42 41 39 36 34 34 35 36 36 34 34 33 29 31 36 35 33 34 35 37 36 35 36 35 35 36 37 37 37 37 36
68 67 66 65 63 62 61 60 59 58 57 56 56 57 58 58 59 58 57 56 55 54 53 53 53 53 53 53 54 53 53 54 54 53 52 52 51 51 51 51 51 51 51 50 50 49 49 49 48 48 47 47 47 47 47 47 47 45 43 41 37 35 37 38 38 37 36 35 35 31 33 38 37 34 35 37 38 38 37 37 36 36 37 38 38 38 38 38
69 68 67 67 66 64 63 62 61 60 59 58 56 57 58 59 59 59 59 58 57 55 54 53 53 52 52 52 53 53 53 53 53 52 51 51 51 52 53 52 52 52 52 52 51 51 50 50 50 49 49 49 49 49 49 49 49 47 43 41 39 38 40 41 40 39 37 36 36 33 34 39 39 36 37 38 39 40 39 39 38 38 38 39 39 38 39 39
71 69 68 68 67 67 66 64 63 62 61 60 58 57 56 58 59 59 59 60 59 57 56 54 53 52 51 52 52 52 53 53 51 50 49 50 50 51 51 51 52 52 52 52 52 52 52 52 51 51 50 51 51 51 51 51 51 48 44 43 42 41 41 42 43 41 39 37 37 35 35 39 40 37 38 40 41 42 41 41 41 41 41 40 40 41 41 41
73 70 69 68 68 68 68 66 65 64 63 62 61 59 57 57 58 59 60 60 60 60 59 56 55 54 52 53 53 53 53 52 50 49 48 49 49 49 49 50 50 50 51 51 51 52 52 52 52 52 52 52 54 54 53 52 52 49 47 46 45 44 43 43 44 43 41 39 38 37 37 41 41 39 40 41 42 43 44 44 44 44 43 42 42 43 43 44
74 73 71 69 69 69 69 68 67 66 65 64 63 61 60 59 59 59 59 60 60 61 60 58 58 56 55 55 55 55 53 51 50 49 48 48 48 47 48 48 49 49 49 50 50 51 51 51 51 51 53 55 56 55 53 53 52 50 49 48 47 46 45 45 46 45 43 41 40 39 39 42 42 40 41 42 42 43 46 47 47 46 45 44 44 44 45 45
76 75 73 71 69 70 70 70 69 68 67 66 65 63 63 62 60 59 59 59 59 60 61 61 61 59 57 56 56 55 54 52 51 50 49 48 47 47 47 47 47 47 48 49 50 50 50 50 50 51 55 58 57 54 53 53 52 51 51 50 49 49 48 48 47 45 45 43 42 41 40 43 44 43 42 41 42 44 47 49 49 48 47 45 44 44 45 46
77 77 76 74 72 71 70 70 70 69 68 67 67 65 64 63 62 61 60 60 60 62 63 62 62 60 57 57 56 55 55 54 53 52 51 50 49 48 48 48 48 48 49 50 50 49 50 49 49 53 57 58 55 53 54 54 53 52 51 51 50 50 51 51 48 47 46 44 43 43 41 42 46 45 43 42 42 45 48 49 50 50 49 46 45 45 45 46
80 79 78 77 75 73 72 71 71 70 69 67 68 67 66 65 64 63 62 62 62 63 63 63 62 60 58 58 58 57 56 55 54 54 53 52 51 50 50 50 50 51 52 51 50 50 50 49 50 56 58 56 54 53 54 54 53 51 52 52 51 51 52 52 50 49 48 44 44 45 43 43 45 46 45 44 44 47 49 50 51 51 49 48 47 46 46 47
82 81 80 79 78 76 74 72 71 70 68 67 67 68 69 69 68 66 65 64 64 64 64 63 62 60 60 60 59 59 57 56 56 55 55 54 53 52 53 53 53 54 55 53 52 53 51 50 53 57 56 54 53 53 53 53 52 52 52 53 52 53 53 52 52 51 49 46 45 46 44 43 45 46 46 47 47 49 52 53 53 51 50 50 49 48 47 48
83 82 81 80 79 78 75 73 72 70 68 67 68 69 71 71 71 70 68 66 65 65 64 63 62 62 61 60 59 59 58 57 58 56 56 55 56 56 55 55 57 57 56 55 55 55 53 52 55 57 55 53 54 53 53 52 52 53 54 53 53 55 55 53 54 52 50 48 46 47 45 42 45 46 47 49 49 52 55 55 54 53 52 52 51 49 49 48
85 83 82 81 82 80 77 75 72 70 69 69 70 71 71 72 73 73 72 71 68 65 64 63 63 61 61 61 60 59 58 58 58 58 58 57 58 58 57 58 58 57 57 58 58 56 53 54 55 55 55 54 54 54 54 54 54 54 54 54 55 57 56 54 54 53 51 50 49 49 45 40 44 47 47 51 53 54 56 54 54 54 53 52 52 51 50 49
88 86 85 84 84 82 81 78 72 70 70 71 73 74 74 73 74 75 75 75 70 66 65 64 62 61 61 62 59 58 59 58 58 59 59 59 60 59 58 58 58 58 60 61 60 56 52 53 54 54 55 55 55 55 56 56 55 55 55 56 57 57 57 56 55 54 53 51 50 51 45 38 42 46 47 52 56 57 57 55 56 55 52 52 52 51 51 51
91 90 89 88 87 85 84 79 74 74 73 72 75 78 77 75 75 76 78 78 73 66 65 65 63 61 61 61 59 60 61 57 57 59 59 59 60 59 58 57 57 58 61 63 61 54 51 54 56 56 56 57 56 56 58 59 57 55 55 57 58 56 56 56 56 55 53 50 50 51 47 41 40 44 48 52 54 56 60 60 59 56 53 52 52 52 52 52
93 92 91 91 90 88 86 80 77 79 77 77 79 80 78 77 77 77 79 81 74 65 65 65 63 61 60 62 62 64 62 56 57 60 59 60 61 61 60 58 58 59 62 64 61 54 54 58 60 59 58 58 57 58 61 62 59 56 56 58 58 56 56 57 57 55 52 50 49 49 50 47 42 43 49 51 52 57 62 63 60 57 55 54 54 53 53 54
94 91 91 92 92 90 88 84 81 79 78 81 83 82 81 81 81 80 81 83 73 64 65 65 63 61 60 62 64 65 63 59 59 61 61 63 64 63 62 60 61 62 65 65 60 57 58 60 61 61 60 59 58 60 63 63 62 59 58 58 58 58 58 58 57 55 52 50 47 47 53 53 44 41 46 47 52 60 64 63 60 57 56 55 55 55 55 55
96 91 88 90 92 90 89 88 84 81 81 82 82 83 84 85 84 83 86 84 70 61 64 66 64 63 62 63 64 64 64 62 62 63 63 65 65 64 63 63 64 64 65 64 61 60 60 59 61 63 62 60 61 62 63 63 63 61 60 59 60 60 59 58 56 54 54 50 46 49 55 56 46 38 41 44 52 62 64 62 60 57 56 55 56 56 55 55
96 93 90 89 88 87 87 87 87 88 88 86 83 81 84 87 87 87 89 82 66 61 65 67 65 64 63 64 65 65 65 64 65 66 66 65 65 65 65 65 65 64 64 64 62 61 61 61 62 62 62 62 63 63 62 63 63 62 61 61 61 61 59 58 54 54 53 47 46 52 56 56 46 35 38 44 53 63 62 60 60 56 55 55 55 55 55 55
96 94 91 90 88 88 86 84 88 93 95 93 89 85 84 85 88 91 89 77 66 65 68 68 66 65 66 66 67 68 67 66 66 67 67 66 66 66 65 65 66 66 66 65 63 63 63 63 62 62 62 62 63 64 64 64 63 63 63 62 62 61 59 57 54 54 53 46 47 52 53 53 44 36 40 46 53 60 60 59 59 56 54 54 54 54 53 53
96 93 91 90 91 91 87 84 89 96 98 97 96 94 90 88 91 92 83 72 71 71 71 69 67 67 70 70 70 69 69 68 67 67 67 68 68 67 65 65 65 66 66 65 65 67 66 65 63 62 61 62 64 65 65 65 64 64 63 62 63 62 59 57 55 55 54 49 49 51 51 48 40 38 46 49 51 56 58 58 58 55 54 54 53 53 53 52
96 93 91 91 91 92 90 90 94 97 98 98 100 101 100 99 96 90 79 73 75 73 70 70 70 71 73 73 72 71 70 70 70 69 69 70 70 70 69 68 68 68 66 66 68 69 67 65 63 61 61 63 64 64 65 65 65 64 63 64 64 63 61 59 58 59 56 52 52 52 50 45 38 42 50 51 52 55 56 56 56 54 54 54 54 54 54 53
97 96 93 92 92 93 93 94 98 99 99 100 103 105 107 105 95 85 78 76 77 74 71 73 76 77 76 74 73 73 73 73 73 73 74 74 74 72 71 71 71 71 70 70 70 69 67 64 62 62 62 62 63 63 63 64 64 63 63 65 64 63 65 64 62 61 57 55 54 52 50 45 42 45 50 52 54 56 56 55 55 54 54 54 55 55 55 55
100 99 96 94 93 93 93 95 98 101 101 102 105 108 109 103 89 78 76 76 78 77 75 76 78 78 79 77 75 74 75 75 75 76 76 77 76 73 72 72 73 74 74 74 72 71 70 66 63 64 63 62 62 62 62 63 63 62 63 64 63 65 68 67 64 61 60 58 55 53 51 47 46 47 48 51 55 58 58 56 55 55 54 55 56 56 56 55
103 101 98 95 92 91 92 94 96 100 103 105 108 110 107 97 83 75 75 76 79 80 79 81 81 80 80 80 78 77 78 77 77 77 77 77 77 75 74 74 75 76 77 77 76 75 73 68 65 64 62 61 61 60 61 62 62 63 63 63 65 68 69 67 64 62 63 61 55 53 52 50 49 47 47 53 57 59 60 58 57 56 55 55 55 56 56 55
104 103 100 95 92 92 93 94 96 100 104 107 110 109 103 92 83 80 80 79 81 82 81 82 83 82 81 81 80 80 81 82 81 80 79 79 78 75 74 75 77 77 77 78 79 77 74 70 66 66 64 64 63 61 60 61 62 64 64 65 68 69 67 67 66 64 64 62 55 52 52 51 50 47 49 55 58 59 61 60 59 58 57 56 55 55 55 55
105 105 102 97 94 95 96 96 98 102 106 109 110 107 100 92 86 84 84 84 85 85 84 83 82 81 81 82 82 81 83 85 84 83 82 81 78 75 74 76 77 77 77 79 80 77 75 71 68 66 66 66 66 64 62 61 63 65 66 67 68 67 66 67 67 65 65 64 59 54 53 51 50 49 52 56 58 60 61 62 62 61 59 58 58 57 57 56
108 108 104 99 97 97 97 98 100 104 108 111 109 102 93 86 84 87 88 87 87 89 89 86 83 83 82 82 83 83 85 86 86 87 86 85 81 76 75 76 76 77 78 80 80 78 77 75 70 66 66 67 67 65 63 63 66 67 66 65 66 66 65 66 67 66 66 66 62 58 55 51 50 51 54 56 59 62 64 65 67 65 63 62 61 60 60 60
111 111 106 101 100 100 100 101 105 109 111 111 107 98 89 85 87 91 93 90 90 92 91 88 87 87 84 83 84 85 86 86 87 87 87 86 84 80 79 78 78 78 80 82 82 80 78 77 73 70 69 69 68 66 67 68 69 68 66 65 65 66 67 67 67 67 67 66 65 61 57 52 51 51 53 57 61 65 67 68 69 69 67 66 64 63 63 63
114 113 108 104 102 102 104 106 109 111 112 111 107 98 92 91 92 94 95 94 93 92 90 89 90 90 86 84 84 85 86 86 86 87 87 85 83 82 81 81 81 81 83 84 84 81 80 79 78 76 73 71 70 69 70 72 71 70 69 67 67 69 70 70 68 67 69 69 67 65 58 52 52 53 54 58 63 65 67 67 68 69 70 69 68 66 66 65
116 115 110 106 105 105 107 110 110 111 111 109 105 100 96 95 95 96 95 95 95 93 90 90 90 90 89 86 85 86 88 88 86 86 85 83 82 81 81 82 83 83 84 84 83 82 83 82 81 78 75 73 73 73 73 74 74 73 71 70 71 72 72 72 71 71 73 71 69 68 61 54 54 55 56 59 62 64 66 67 67 68 69 69 68 67 67 66
117 117 113 110 108 108 110 112 112 112 112 109 105 103 102 100 99 99 98 97 95 93 92 91 90 91 91 90 90 90 90 90 89 86 84 83 82 82 82 82 82 83 84 84 83 83 85 86 84 81 79 77 77 76 76 76 75 74 72 72 75 75 75 77 78 77 77 73 71 71 65 56 55 57 59 62 63 64 65 65 66 67 67 68 68 67 66 65
117 118 116 112 111 111 114 116 116 114 113 112 111 109 105 102 101 101 99 98 97 95 93 92 91 91 92 92 93 93 93 94 93 90 88 87 86 85 87 87 85 85 85 85 85 87 89 90 89 86 84 82 81 79 77 76 76 76 77 78 78 78 79 81 81 81 80 75 75 75 66 58 59 62 63 64 65 65 65 64 65 66 66 67 67 67 67 66
117 118 118 114 112 114 117 118 119 118 115 115 115 113 109 105 103 102 101 100 100 99 97 94 93 93 94 94 94 94 95 95 96 94 93 91 90 89 91 91 90 89 89 89 90 90 91 92 91 90 89 86 84 82 80 81 82 83 82 82 81 82 82 83 83 84 81 78 78 77 69 64 66 66 66 67 68 68 67 67 67 67 67 68 68 69 69 69
119 118 118 116 115 117 118 119 121 121 119 118 117 115 114 111 107 106 107 105 103 101 99 97 95 96 97 97 96 95 94 94 96 97 95 93 92 92 94 94 94 93 93 93 94 94 94 94 93 92 90 88 86 85 85 86 87 86 84 84 84 84 84 85 86 84 82 82 80 77 75 73 71 70 71 73 72 71 70 71 71 71 71 71 71 71 71 71
123 118 116 117 117 118 119 119 121 121 120 119 118 117 117 114 111 112 112 110 108 105 103 100 98 98 98 97 95 94 94 95 97 97 96 95 93 92 92 92 92 92 92 94 97 97 97 96 94 93 91 89 88 88 88 87 87 86 85 84 84 85 86 88 87 84 86 87 82 78 80 80 75 74 76 77 76 75 74 74 75 75 74 74 73 73 72 72
127 122 118 118 120 120 119 120 122 123 122 121 121 121 120 117 115 114 112 110 110 110 107 104 101 98 97 97 96 96 95 96 96 95 95 95 94 92 91 89 87 88 90 93 95 96 97 97 95 94 93 91 91 91 89 88 88 86 85 84 84 86 88 88 88 86 88 89 84 80 83 81 76 75 77 77 78 77 76 76 75 74 74 73 72 71 71 71
131 126 122 122 123 121 120 121 123 125 125 124 123 123 122 120 117 114 112 111 111 111 109 106 102 99 99 99 100 99 97 94 93 92 93 94 94 93 92 91 89 90 91 92 92 94 95 95 95 96 95 94 95 94 91 90 89 87 86 85 84 86 87 87 86 85 87 88 82 79 81 79 73 73 74 75 76 75 75 74 72 72 71 70 69 69 68 69
136 130 126 126 125 123 122 123 125 125 125 125 124 123 122 121 119 116 114 113 112 111 109 106 102 101 102 103 104 103 99 95 94 95 97 98 98 96 95 94 93 93 94 93 93 94 94 93 93 95 97 96 95 94 92 91 91 90 87 84 83 84 84 83 82 80 82 81 75 75 77 71 66 68 71 71 71 70 70 69 68 69 68 67 67 66 66 67
139 135 131 129 129 127 124 124 124 125 124 124 122 121 121 119 117 115 113 113 112 110 108 106 103 103 105 106 106 103 99 97 98 100 101 101 100 98 97 95 94 94 95 95 95 95 93 91 89 91 94 94 92 92 92 91 93 93 86 80 82 83 81 80 77 74 74 73 70 70 68 61 59 64 67 66 64 64 64 65 66 66 66 65 64 64 64 65
138 139 136 133 132 131 128 126 125 124 123 122 120 118 118 116 113 112 112 112 110 108 107 104 103 105 105 104 102 98 96 96 97 96 96 96 96 96 96 95 95 95 95 95 95 94 92 89 87 88 90 89 89 90 90 92 95 92 81 77 82 82 79 76 72 68 69 69 69 67 63 60 61 64 63 63 63 63 63 64 65 65 65 64 64 64 65 66
Wind_Direction
230 229 228 227 226 225 226 226 227 227 227 227 227 227 227 228 228 229 230 231 232 232 233 233 234 234 235 236 237 238 239 240 242 243 244 246 247 248 250 251 252 253 254 255 257 258 260 261 262 263 264 265 266 267 267 267 266 265 264 263 262 262 265 268 270 269 268 268 266 264 262 263 264 265 267 268 266 265 265 265 266 270 272 272 270 272 277 280
231 231 230 229 228 227 227 227 227 228 229 229 229 229 229 229 229 230 231 232 232 233 234 234 235 235 236 237 238 239 240 241 243 244 246 247 248 250 251 252 253 254 255 256 257 259 260 261 262 263 264 264 265 265 266 265 265 264 264 264 262 261 262 263 265 266 267 267 267 265 263 262 263 265 267 268 267 266 263 262 263 266 268 270 270 269 270 275
231 232 232 231 230 229 228 227 228 229 230 230 230 230 230 230 230 231 232 233 233 234 235 235 236 236 237 238 239 241 242 242 244 245 246 248 249 251 252 253 254 255 256 257 258 259 261 262 262 263 264 264 264 264 264 264 264 263 263 263 262 262 262 262 262 263 264 266 267 267 265 261 262 265 267 268 269 268 265 261 259 263 266 268 269 270 270 271
232 232 233 233 233 232 230 229 229 229 230 231 231 231 232 232 232 232 232 233 234 235 236 236 237 237 238 239 240 242 242 243 244 245 246 248 250 251 253 254 255 256 256 257 259 260 261 262 262 264 265 264 264 264 264 264 263 262 261 262 262 262 262 262 263 262 261 263 265 267 267 264 262 262 264 267 270 270 268 264 259 258 264 267 269 270 271 272
233 233 233 234 235 235 234 232 230 230 231 231 231 232 233 233 233 233 233 234 235 236 236 237 237 238 238 239 240 242 243 244 245 246 247 248 250 251 252 254 255 256 257 258 259 260 261 262 263 265 265 265 265 265 264 263 262 261 261 261 260 260 261 263 264 264 262 260 261 265 267 267 265 262 261 263 268 271 270 267 263 259 261 265 268 270 271 273
234 233 233 234 235 236 236 236 234 233 232 232 232 233 233 234 234 234 235 235 235 236 237 237 238 238 238 239 240 242 243 244 245 246 247 248 249 251 252 253 254 255 257 258 258 259 260 262 264 266 266 266 266 265 265 264 263 262 261 261 261 259 259 262 265 266 266 263 261 261 264 265 266 265 264 263 265 268 269 269 267 264 263 264 266 268 270 272
235 235 234 235 235 236 237 238 238 237 235 235 234 234 235 235 235 236 236 236 236 237 237 238 238 239 240 239 240 241 243 244 245 246 247 248 249 250 252 253 254 255 256 258 259 259 261 262 264 265 266 266 266 266 266 265 264 263 261 261 262 261 257 258 263 266 267 267 265 262 262 263 264 265 265 266 266 266 268 270 270 268 266 264 265 267 269 270
235 236 236 236 236 237 237 238 239 239 238 238 237 236 236 237 237 237 238 238 238 238 238 239 239 240 240 241 242 242 243 244 245 246 247 248 249 250 252 253 254 255 256 258 259 260 261 263 264 265 266 266 266 266 266 266 265 264 262 261 262 264 261 257 259 264 266 266 266 265 263 263 264 265 266 266 265 265 268 271 272 271 269 266 266 267 268 269
235 236 236 236 237 237 237 238 239 239 240 240 239 239 238 238 239 239 240 240 240 240 240 240 241 241 242 242 243 244 245 245 246 247 248 249 250 251 251 253 254 255 256 258 259 261 263 263 264 265 266 266 266 265 266 266 266 265 264 262 261 264 264 262 259 260 263 263 264 265 265 266 267 268 268 266 264 265 268 271 272 272 271 270 268 267 268 268
235 236 237 237 237 237 238 238 239 240 241 241 241 241 241 240 240 240 241 242 242 242 242 243 243 243 243 244 244 245 246 247 247 248 249 250 250 251 252 253 254 255 256 258 260 262 263 264 264 265 266 267 267 266 266 266 266 266 266 264 261 262 264 265 262 259 260 261 262 264 266 267 269 271 270 268 266 266 267 269 271 272 272 272 271 270 270 269
235 236 237 238 238 238 238 239 239 240 241 241 241 242 242 242 242 242 242 243 244 244 244 245 245 245 246 246 246 247 248 248 249 249 250 251 252 252 253 254 255 256 257 259 261 262 263 264 264 265 266 266 267 267 267 266 266 266 265 264 263 262 263 264 264 260 259 260 261 263 266 267 267 269 270 270 270 269 269 269 270 272 273 274 274 273 272 271
234 235 237 238 238 239 239 239 240 240 241 241 242 242 242 242 243 243 244 244 245 245 246 246 246 247 247 248 248 248 249 249 250 251 252 252 252 253 253 254 255 256 258 259 260 262 263 264 264 265 265 266 266 267 267 267 266 266 265 264 264 264 264 264 263 260 258 260 262 263 265 266 265 267 270 271 271 271 271 271 272 273 274 275 275 274 274 273
234 235 236 237 238 239 240 240 241 241 241 242 242 243 243 243 243 243 244 245 245 246 246 247 247 248 248 249 249 249 250 250 251 252 252 253 254 254 254 254 255 256 257 258 259 261 263 264 264 264 265 266 266 266 267 268 267 266 265 265 264 265 265 263 261 261 260 261 262 262 263 265 266 267 270 271 271 271 272 272 273 274 275 276 276 275 275 274
234 234 236 237 238 238 239 240 240 241 242 243 243 243 243 244 244 244 244 244 245 246 247 248 248 248 249 249 250 250 251 251 252 252 253 254 254 255 255 255 256 257 258 259 259 260 262 263 264 264 264 265 266 267 267 267 267 266 265 266 266 265 264 262 261 262 262 262 262 262 262 266 267 267 268 269 270 271 272 272 274 275 275 275 275 276 276 276
234 235 235 236 238 239 239 239 239 240 241 242 243 244 244 244 244 244 244 244 245 246 247 248 248 249 249 250 250 250 251 251 252 252 254 255 255 255 256 256 257 258 259 260 261 261 262 263 263 264 265 265 266 266 266 266 266 266 266 268 267 265 263 263 262 262 262 262 262 262 262 265 267 267 268 269 270 270 271 272 273 273 273 274 275 276 275 275
234 235 235 236 237 239 239 239 239 239 240 241 242 244 244 244 244 244 245 245 245 245 246 247 248 248 248 250 250 250 251 251 252 252 254 254 255 256 256 257 257 258 259 260 261 262 262 263 263 264 265 265 265 264 264 265 266 267 267 267 266 265 265 265 265 263 262 262 262 262 261 263 265 266 267 268 269 271 272 273 273 272 273 274 275 275 274 274
234 235 235 236 237 238 239 240 240 239 238 239 240 242 243 244 245 245 245 245 245 244 245 245 246 247 247 249 249 250 250 251 252 252 253 254 255 256 257 257 258 258 258 259 260 260 261 262 263 264 265 265 263 262 263 265 266 267 267 267 266 265 264 264 265 265 264 263 262 260 259 260 263 265 265 266 268 271 272 273 273 273 273 274 274 274 274 274
234 235 236 236 237 238 239 240 240 240 239 238 239 240 241 243 244 245 245 245 245 245 245 245 245 245 245 247 248 249 250 251 251 252 252 253 254 255 257 257 258 258 258 258 259 259 260 262 263 263 264 263 262 262 264 265 266 267 267 267 267 266 264 263 263 264 265 264 263 262 261 262 263 263 264 267 269 271 272 272 272 273 274 273 273 274 274 274
234 235 235 236 236 237 239 240 241 241 240 239 238 238 240 242 244 245 245 245 245 245 244 243 243 243 243 245 247 248 249 250 250 251 251 252 253 254 256 257 258 258 259 258 258 259 260 261 262 263 262 261 262 263 265 265 266 266 267 267 267 267 266 264 263 264 264 264 264 263 263 265 265 264 264 266 270 271 272 273 274 275 274 273 273 273 273 273
234 235 235 236 236 237 238 240 241 242 242 241 240 239 239 241 242 243 244 244 244 243 242 242 242 242 242 244 246 247 248 248 249 249 250 251 252 253 254 256 257 258 258 258 258 259 260 260 262 262 261 262 264 265 266 266 266 266 267 267 267 267 267 265 264 264 264 264 265 264 263 265 267 268 267 266 267 268 269 272 274 275 275 275 275 274 273 273
233 234 235 236 236 237 238 239 241 242 243 242 242 240 239 240 240 241 242 243 243 243 242 242 242 242 242 243 245 246 246 248 248 248 249 250 251 252 253 255 255 256 257 258 259 259 260 261 261 261 262 265 266 267 267 267 268 268 268 267 266 266 266 266 265 264 264 264 265 265 265 265 266 268 269 268 266 266 268 269 270 272 274 275 274 274 274 274
232 234 235 236 236 237 237 238 240 242 243 243 243 242 240 240 239 240 241 242 242 242 242 241 241 242 242 242 244 245 246 247 248 249 249 250 251 251 252 254 255 255 256 258 259 259 260 261 261 263 265 267 268 267 268 269 269 268 267 266 266 265 264 265 265 264 264 264 264 265 265 266 268 269 270 269 267 267 267 267 268 270 271 272 273 273 273 274
231 233 235 236 236 236 237 238 239 241 243 244 244 243 241 241 240 240 240 241 241 242 242 241 241 241 242 242 244 246 247 248 249 250 251 251 252 252 253 254 255 256 258 259 259 259 260 261 262 265 267 268 268 268 268 267 267 267 266 266 266 265 264 264 265 265 265 265 264 264 264 267 271 271 272 272 270 268 267 267 268 269 270 271 272 272 273 274
230 232 234 235 236 235 236 237 238 240 242 244 244 244 243 242 241 241 240 240 240 242 242 242 241 241 243 243 243 245 247 248 250 251 252 253 253 254 254 255 257 259 260 259 259 259 261 262 264 267 268 268 268 267 266 265 265 265 266 266 266 266 265 265 265 265 265 265 264 263 263 266 269 271 272 272 270 269 269 269 269 269 269 271 271 272 273 273
229 230 232 234 235 235 235 235 237 239 241 243 244 244 244 243 243 242 242 241 239 240 242 242 242 242 243 243 244 245 246 248 251 252 253 254 255 255 255 256 257 258 258 258 259 260 263 265 265 266 266 265 265 265 265 264 264 264 266 266 266 267 268 268 267 266 265 265 266 265 263 261 265 268 268 268 269 270 270 269 268 269 270 271 272 272 273 273
229 230 231 232 234 234 235 235 236 238 239 242 244 245 245 245 245 244 243 242 239 239 242 243 242 241 243 244 244 245 245 246 250 252 253 254 255 255 255 255 256 256 257 258 258 259 262 263 262 261 262 263 264 265 265 264 263 264 265 266 267 268 270 270 270 268 268 268 269 270 267 260 258 263 264 265 269 270 270 268 268 269 270 270 271 271 272 272
231 230 230 231 233 234 234 234 235 237 238 240 242 244 245 245 245 245 245 243 239 237 241 243 243 243 243 244 244 244 245 245 248 250 252 253 253 254 254 254 255 255 256 256 257 257 258 259 260 260 262 263 265 265 265 265 264 264 265 266 268 269 269 269 269 270 271 271 271 273 272 264 257 259 262 267 270 269 269 269 270 271 271 270 271 271 271 271
234 233 233 232 232 233 234 233 234 237 239 241 241 242 244 245 246 246 246 245 241 238 241 244 244 243 242 243 244 245 244 244 247 249 251 252 252 253 254 254 254 255 256 257 257 256 255 257 260 261 261 262 263 263 264 266 267 267 267 269 270 270 269 269 271 272 272 272 273 273 270 266 260 260 265 268 270 269 268 269 270 271 271 271 271 271 271 271
235 236 238 236 234 234 234 234 234 236 238 240 242 244 244 244 245 246 247 247 243 241 243 244 245 244 243 243 244 245 244 244 245 248 250 252 252 253 253 254 254 255 257 258 257 256 255 256 257 259 260 261 262 263 265 267 269 269 270 270 271 271 272 274 275 275 274 274 274 270 269 268 267 267 267 265 266 268 268 270 271 271 272 272 272 272 272 272
234 236 239 240 238 237 236 236 235 236 237 238 240 243 244 244 244 245 246 246 245 243 243 244 244 244 244 244 244 244 244 244 244 245 248 251 253 254 254 254 254 254 256 257 257 257 256 255 255 257 259 261 262 264 265 267 268 269 269 270 271 273 276 277 278 278 276 276 273 269 270 272 273 273 269 264 264 266 268 271 273 273 274 273 273 273 274 274
233 235 239 241 240 239 239 238 237 237 238 238 238 239 242 244 245 245 245 245 246 243 242 244 244 244 245 245 244 244 243 244 244 245 246 249 251 253 254 256 256 255 255 256 256 256 255 255 255 256 259 261 263 265 265 266 268 269 270 272 273 274 276 277 279 278 277 276 273 272 273 276 279 275 267 264 265 268 271 272 274 275 275 275 275 275 275 275
233 234 238 240 240 240 240 240 238 238 239 239 239 239 240 241 243 244 245 247 247 244 243 244 245 246 247 246 246 246 245 245 245 246 246 247 249 251 253 254 256 256 256 256 256 256 255 255 256 258 260 261 263 264 266 268 269 270 272 274 274 275 276 277 277 276 276 275 274 274 275 278 282 275 267 265 266 269 272 273 275 276 276 277 277 276 276 275
233 234 237 239 241 241 240 239 239 241 242 242 241 241 240 240 242 243 244 246 248 247 247 247 246 245 247 247 247 247 246 246 245 245 245 246 246 247 249 251 254 256 256 256 256 256 256 257 259 260 261 261 263 265 267 269 270 271 273 274 274 276 276 275 273 272 274 276 275 275 276 280 280 273 270 271 270 270 271 272 274 275 276 277 277 276 276 275
233 234 237 239 240 240 240 239 239 241 242 242 242 242 243 244 246 247 246 248 249 247 247 248 247 246 245 245 246 247 247 246 246 245 245 246 246 247 249 251 252 255 255 256 256 258 259 259 261 261 261 262 264 265 266 268 269 271 272 272 274 275 274 272 271 272 274 274 274 276 279 281 278 273 274 275 274 272 271 271 272 273 274 275 275 275 275 275
233 234 236 238 239 240 240 240 241 243 243 243 243 244 246 248 250 251 252 251 250 248 246 247 248 247 246 245 244 246 247 247 247 247 247 247 248 248 249 250 251 253 255 255 256 258 259 259 260 262 263 264 264 265 266 267 268 269 270 271 272 271 271 271 272 274 274 273 275 277 280 280 277 276 276 275 274 273 273 273 273 273 274 274 274 274 275 275
234 235 236 238 239 240 241 241 242 244 245 244 244 245 248 251 253 252 252 250 249 249 246 245 246 246 247 247 245 244 245 246 246 247 248 248 248 248 249 250 251 253 255 256 257 257 257 258 259 261 263 264 263 263 264 266 268 269 270 270 270 269 270 272 273 274 274 275 276 277 277 277 276 277 275 273 273 274 276 277 276 276 275 274 275 275 276 276
234 236 237 237 239 241 241 241 242 244 245 245 245 246 248 250 251 251 250 249 249 249 247 247 247 247 247 248 248 247 246 246 246 247 248 249 250 250 251 251 253 255 256 257 258 258 258 259 260 261 262 262 263 263 264 267 269 270 269 269 268 269 271 272 272 273 274 275 275 274 274 274 275 275 273 273 275 277 278 279 278 277 276 275 275 275 275 276
235 236 237 237 237 239 241 241 241 243 244 244 244 245 247 248 249 250 250 250 250 250 249 248 249 249 249 248 248 249 248 248 248 248 249 250 251 251 252 253 254 255 256 257 259 260 261 261 260 260 261 262 263 265 266 268 268 268 267 267 269 271 272 273 274 274 274 274 273 272 273 274 275 274 273 274 277 278 279 278 277 276 275 275 275 275 276 277
236 237 237 236 236 238 240 241 242 243 243 244 244 245 246 247 248 250 250 250 250 250 250 249 249 251 251 250 249 248 249 250 250 250 250 250 251 251 252 254 255 256 257 259 260 261 262 262 261 260 261 261 263 265 267 267 266 265 265 267 270 272 273 274 275 276 275 275 275 273 272 274 275 275 275 276 276 276 276 276 276 276 276 276 276 276 277 278
237 237 237 236 236 237 238 240 242 242 243 243 244 245 245 245 245 245 247 247 248 248 249 249 249 250 251 251 250 250 250 251 251 252 251 251 252 252 253 255 257 257 258 259 259 260 262 263 262 260 260 261 263 264 265 264 264 265 266 268 270 272 272 273 274 275 275 275 275 274 274 275 275 275 276 275 274 274 275 275 276 277 277 277 277 277 278 278
238 238 237 237 236 236 237 239 240 242 243 243 243 243 243 243 243 244 245 246 247 248 249 249 249 250 250 250 250 250 250 250 251 252 253 253 253 253 253 254 255 256 257 258 259 261 262 263 263 262 262 262 263 262 262 263 264 265 266 268 270 270 271 272 272 273 273 274 275 277 277 276 275 274 275 274 274 275 275 276 277 277 278 278 278 278 279 279
239 239 238 238 237 236 237 238 239 241 244 244 245 244 243 243 243 243 245 247 248 249 250 250 250 251 252 252 252 251 251 251 251 252 253 254 254 253 253 253 254 255 256 258 260 261 262 263 263 264 263 262 262 261 262 263 264 265 267 269 270 269 270 270 270 271 272 275 277 277 277 276 275 275 273 272 272 273 275 277 278 278 279 279 279 279 279 278
237 239 239 238 237 236 237 239 240 240 242 244 245 244 244 243 242 242 244 246 248 249 250 250 250 251 252 253 253 253 253 253 253 253 253 254 254 253 253 252 253 254 256 258 260 261 262 263 263 263 262 262 262 263 264 265 267 268 268 267 267 268 269 270 272 273 274 276 276 276 276 277 275 272 270 269 270 272 274 276 277 278 279 279 279 279 278 278
235 238 239 238 237 237 237 239 241 241 241 242 243 244 244 244 244 244 245 246 248 249 250 250 250 251 252 253 253 253 253 253 253 253 253 253 253 253 253 253 253 254 256 258 259 260 261 262 263 263 263 263 264 265 266 266 266 266 265 265 267 269 271 272 274 274 275 275 275 275 277 276 272 269 269 270 271 271 272 273 274 275 276 277 277 277 278 278
233 235 237 237 236 236 237 238 240 241 240 240 241 242 243 244 245 246 246 246 247 248 249 249 249 250 251 252 252 253 253 253 253 253 253 254 254 254 254 255 255 255 256 257 258 259 260 261 263 263 264 264 265 265 265 264 264 264 266 268 270 271 272 273 274 275 276 277 276 276 276 274 271 270 270 270 270 270 271 271 271 272 272 274 275 276 278 279
232 232 235 236 236 236 237 238 239 240 240 239 239 240 241 243 245 246 247 246 246 247 248 248 248 248 249 250 252 253 254 255 254 253 253 254 256 256 257 257 257 257 257 257 257 257 258 260 261 263 264 264 264 264 264 264 265 267 269 269 270 271 273 273 274 276 278 277 276 277 277 274 272 272 271 270 270 269 269 269 269 270 271 273 275 276 277 278
231 231 233 235 236 236 237 238 239 239 239 239 239 240 242 244 245 246 246 247 247 247 247 247 247 248 249 250 252 253 254 254 254 254 254 255 256 257 258 258 259 259 258 257 256 256 257 258 260 262 263 263 264 264 264 265 266 268 269 270 271 272 273 274 276 278 278 277 277 278 277 276 275 273 271 270 270 269 268 268 269 270 271 273 274 275 275 275
230 230 231 234 236 236 237 238 240 240 240 240 241 242 244 245 245 245 247 247 248 248 248 249 249 249 249 250 251 252 252 252 253 254 255 256 257 258 258 259 258 257 257 256 256 256 256 258 259 260 261 261 262 262 263 265 266 267 269 270 272 273 274 276 277 278 278 278 279 278 276 275 274 272 271 271 270 270 270 270 270 271 271 272 272 273 272 272
229 229 229 232 234 236 236 237 239 241 242 242 243 244 245 245 246 246 247 247 248 249 250 251 250 249 249 249 250 250 251 252 252 254 255 257 257 258 258 257 256 255 256 256 257 257 257 257 257 257 258 259 260 262 263 264 266 267 268 270 272 275 276 277 278 279 278 278 278 276 273 272 272 272 271 270 270 271 272 272 272 271 270 269 269 269 270 270
228 228 228 230 233 235 236 237 238 240 242 243 243 244 245 245 246 246 246 247 248 250 251 252 251 250 249 249 249 250 251 251 252 252 254 255 255 256 256 256 256 255 256 256 257 257 257 257 257 257 257 258 260 262 263 265 266 267 268 271 274 276 278 279 279 278 277 276 275 272 272 273 272 270 269 269 270 272 272 272 271 270 269 269 269 268 268 269
227 227 227 228 231 234 235 235 237 239 240 242 243 244 245 246 247 247 247 247 247 248 249 250 249 249 249 248 249 250 251 252 252 252 253 254 254 255 255 255 254 254 254 255 255 256 257 258 258 258 258 259 260 262 264 266 267 267 269 273 276 276 277 277 276 273 273 274 273 272 274 274 269 268 269 270 270 270 270 270 270 270 271 270 269 269 268 269
227 226 226 227 229 232 234 234 235 237 239 240 242 243 245 245 246 247 247 248 248 248 248 248 248 248 248 248 249 251 251 252 252 253 253 253 254 254 254 254 253 253 253 254 256 257 258 259 259 260 260 261 262 264 266 268 268 268 271 274 275 275 276 274 271 270 271 272 272 273 273 271 269 269 270 270 270 270 270 270 271 271 272 271 271 271 270 271
Height
10758 10760 10761 10763 10765 10767 10769 10771 10773 10775 10777 10779 10781 10782 10784 10786 10788 10790 10791 10793 10795 10796 10798 10799 10800 10802 10803 10805 10806 10807 10808 10810 10811 10811 10812 10813 10814 10814 10815 10815 10816 10816 10817 10817 10818 10818 10819 10819 10820 10820 10820 10820 10821 10822 10822 10822 10822 10822 10822 10822 10823 10823 10822 10821 10820 10820 10821 10820 10820 10821 10821 10821 10820 10818 10818 10818 10820 10821 10822 10821 10820 10818 10818 10819 10820 10819 10817 10816
10754 10756 10757 10759 10761 10763 10765 10767 10769 10771 10773 10774 10776 10778 10780 10782 10784 10786 10788 10789 10791 10793 10794 10796 10797 10799 10801 10802 10803 10804 10805 10807 10807 10808 10809 10810 10811 10811 10812 10813 10813 10814 10814 10815 10815 10816 10816 10816 10817 10817 10817 10818 10818 10819 10819 10819 10819 10819 10820 10819 10820 10821 10821 10820 10818 10818 10818 10818 10817 10818 10819 10820 10818 10817 10816 10816 10816 10818 10819 10819 10818 10817 10816 10817 10817 10817 10816 10815
10749 10751 10753 10755 10756 10758 10760 10763 10765 10767 10768 10770 10772 10774 10776 10778 10780 10782 10784 10786 10787 10789 10791 10793 10794 10796 10798 10799 10800 10800 10802 10804 10804 10805 10806 10807 10808 10808 10809 10810 10810 10811 10811 10812 10813 10814 10814 10814 10814 10814 10815 10815 10816 10816 10816 10817 10817 10817 10817 10817 10817 10818 10818 10817 10816 10817 10817 10816 10815 10815 10817 10817 10816 10815 10814 10813 10813 10815 10816 10817 10817 10815 10814 10814 10814 10814 10814 10814
10744 10746 10749 10751 10752 10754 10756 10758 10760 10762 10764 10766 10768 10770 10772 10774 10776 10778 10780 10782 10784 10785 10787 10789 10791 10793 10795 10796 10797 10797 10799 10800 10801 10802 10803 10804 10805 10805 10806 10807 10807 10808 10809 10810 10811 10811 10811 10811 10811 10812 10812 10812 10813 10813 10814 10814 10814 10814 10814 10814 10814 10815 10815 10814 10814 10815 10815 10815 10814 10813 10813 10814 10814 10813 10812 10811 10811 10811 10812 10814 10815 10814 10812 10812 10812 10812 10812 10812
10739 10741 10744 10746 10748 10750 10752 10754 10756 10758 10759 10761 10764 10766 10768 10770 10772 10774 10776 10778 10780 10782 10784 10786 10787 10789 10791 10793 10793 10794 10795 10797 10797 10798 10800 10801 10802 10802 10803 10804 10804 10805 10806 10807 10808 10808 10808 10808 10809 10809 10809 10809 10811 10811 10811 10811 10811 10811 10811 10811 10812 10812 10813 10812 10811 10812 10813 10814 10813 10812 10811 10811 10811 10811 10810 10810 10809 10808 10808 10810 10812 10813 10811 10810 10810 10810 10810 10810
10734 10736 10739 10741 10743 10746 10748 10750 10752 10754 10755 10757 10759 10761 10763 10765 10768 10770 10772 10774 10776 10778 10779 10781 10783 10785 10787 10788 10790 10790 10792 10793 10794 10796 10797 10797 10798 10799 10800 10801 10801 10802 10803 10804 10804 10805 10805 10805 10806 10807 10806 10806 10808 10808 10807 10807 10808 10808 10808 10809 10809 10809 10810 10810 10809 10809 10809 10810 10811 10811 10809 10808 10807 10807 10808 10809 10809 10806 10804 10806 10809 10810 10811 10809 10808 10808 10808 10808
10729 10731 10734 10736 10739 10741 10743 10745 10748 10749 10751 10753 10755 10757 10759 10761 10763 10765 10767 10769 10771 10773 10775 10777 10779 10781 10782 10784 10785 10787 10788 10789 10791 10792 10793 10794 10795 10796 10797 10797 10798 10799 10800 10801 10801 10801 10802 10803 10804 10803 10802 10803 10804 10805 10805 10805 10804 10804 10806 10806 10805 10806 10808 10808 10807 10807 10806 10806 10807 10808 10808 10806 10805 10804 10805 10806 10807 10804 10801 10802 10805 10807 10808 10808 10807 10806 10806 10806
10725 10727 10729 10731 10734 10736 10738 10740 10742 10744 10746 10748 10750 10752 10754 10757 10759 10761 10763 10765 10767 10769 10771 10772 10774 10776 10778 10779 10781 10783 10784 10785 10787 10789 10789 10790 10791 10793 10794 10794 10794 10795 10796 10797 10797 10798 10799 10800 10800 10800 10799 10799 10801 10802 10802 10801 10801 10801 10803 10803 10803 10802 10804 10806 10806 10805 10804 10803 10804 10804 10804 10803 10802 10802 10803 10805 10804 10802 10800 10800 10801 10803 10804 10805 10805 10804 10804 10803
10719 10722 10724 10726 10729 10731 10733 10735 10737 10739 10741 10743 10746 10748 10750 10752 10754 10757 10759 10760 10762 10764 10766 10768 10770 10772 10773 10775 10777 10779 10780 10781 10783 10784 10785 10786 10787 10789 10790 10790 10791 10792 10793 10793 10794 10795 10795 10796 10797 10797 10796 10795 10796 10798 10798 10798 10797 10797 10799 10800 10800 10799 10799 10802 10804 10803 10802 10801 10801 10801 10801 10800 10799 10800 10801 10802 10801 10800 10798 10797 10798 10799 10800 10801 10802 10802 10801 10801
10714 10716 10719 10721 10723 10725 10727 10729 10732 10734 10736 10738 10741 10743 10746 10748 10750 10752 10754 10756 10758 10760 10762 10764 10765 10767 10769 10771 10773 10775 10775 10777 10779 10780 10781 10782 10784 10785 10786 10787 10787 10788 10789 10789 10790 10791 10791 10792 10793 10793 10793 10792 10792 10793 10794 10794 10793 10794 10795 10795 10797 10797 10797 10798 10800 10800 10798 10797 10798 10798 10798 10798 10797 10796 10797 10798 10798 10797 10797 10796 10795 10795 10796 10797 10798 10798 10798 10798
10708 10711 10713 10716 10718 10720 10722 10724 10726 10728 10730 10733 10735 10738 10741 10743 10745 10748 10750 10752 10753 10755 10757 10759 10761 10763 10765 10766 10768 10770 10771 10773 10774 10775 10777 10778 10780 10781 10782 10783 10783 10784 10785 10786 10786 10787 10788 10788 10789 10789 10789 10788 10788 10788 10789 10790 10790 10790 10791 10791 10793 10794 10795 10795 10795 10795 10795 10794 10795 10797 10796 10795 10794 10793 10793 10794 10794 10794 10794 10793 10793 10793 10793 10793 10794 10794 10794 10794
10703 10705 10708 10710 10712 10715 10717 10719 10721 10723 10725 10727 10730 10733 10735 10738 10740 10743 10745 10747 10749 10751 10753 10755 10756 10758 10760 10761 10763 10765 10766 10768 10769 10771 10772 10773 10775 10777 10778 10779 10779 10779 10780 10782 10782 10782 10784 10784 10784 10785 10785 10784 10784 10784 10785 10785 10786 10786 10787 10788 10789 10791 10792 10792 10790 10790 10791 10791 10792 10795 10793 10790 10791 10791 10790 10791 10790 10790 10790 10790 10790 10790 10790 10790 10790 10790 10790 10790
10696 10699 10702 10704 10707 10709 10711 10713 10715 10717 10719 10722 10724 10727 10730 10732 10735 10737 10739 10741 10743 10746 10748 10750 10751 10753 10755 10756 10758 10759 10761 10763 10764 10766 10767 10769 10771 10772 10773 10774 10774 10775 10776 10778 10778 10778 10779 10779 10780 10780 10780 10780 10780 10780 10781 10781 10781 10782 10783 10784 10786 10788 10787 10787 10786 10786 10787 10788 10789 10792 10790 10786 10788 10789 10788 10787 10786 10786 10787 10786 10787 10787 10787 10786 10786 10786 10786 10786
10689 10693 10696 10698 10700 10703 10705 10707 10709 10711 10714 10716 10719 10721 10724 10726 10729 10731 10733 10736 10738 10741 10742 10744 10746 10748 10750 10751 10752 10754 10756 10757 10758 10760 10762 10764 10766 10767 10768 10769 10770 10770 10771 10772 10773 10774 10774 10774 10775 10775 10776 10776 10775 10776 10776 10775 10775 10777 10779 10781 10783 10784 10782 10781 10782 10782 10784 10785 10785 10788 10787 10783 10784 10787 10785 10784 10783 10782 10783 10783 10784 10784 10783 10782 10782 10782 10782 10782
10683 10686 10689 10691 10694 10696 10698 10700 10702 10705 10708 10710 10713 10715 10718 10721 10723 10725 10728 10731 10733 10735 10737 10739 10741 10744 10746 10746 10747 10749 10750 10751 10753 10756 10758 10760 10760 10761 10762 10763 10765 10766 10767 10767 10768 10769 10769 10769 10770 10770 10770 10770 10771 10771 10770 10770 10770 10773 10776 10778 10779 10778 10777 10776 10777 10779 10780 10781 10782 10784 10784 10779 10779 10783 10782 10780 10779 10778 10779 10779 10780 10780 10779 10778 10778 10778 10778 10778
10676 10679 10682 10685 10687 10689 10691 10694 10696 10699 10701 10704 10706 10709 10712 10714 10717 10719 10722 10724 10727 10730 10732 10734 10736 10738 10740 10741 10742 10743 10744 10746 10748 10751 10753 10753 10754 10755 10756 10758 10760 10761 10761 10762 10763 10764 10764 10764 10765 10765 10765 10765 10765 10764 10765 10765 10765 10769 10773 10773 10773 10773 10772 10771 10771 10774 10776 10778 10779 10780 10781 10776 10775 10778 10778 10776 10775 10774 10774 10775 10775 10775 10774 10775 10775 10774 10774 10773
10670 10673 10676 10678 10680 10683 10685 10687 10690 10692 10694 10697 10700 10703 10706 10708 10710 10713 10716 10718 10721 10723 10725 10729 10730 10733 10735 10735 10736 10737 10738 10741 10744 10746 10747 10748 10749 10750 10751 10753 10754 10755 10756 10757 10758 10757 10758 10759 10760 10760 10760 10759 10757 10758 10760 10761 10761 10765 10767 10767 10768 10768 10768 10767 10766 10768 10771 10774 10775 10776 10776 10772 10772 10775 10773 10772 10772 10771 10770 10770 10769 10770 10771 10771 10771 10770 10769 10769
10663 10666 10669 10671 10674 10676 10678 10680 10683 10685 10688 10690 10694 10697 10699 10702 10704 10707 10709 10712 10715 10717 10721 10723 10724 10726 10729 10729 10729 10730 10733 10736 10739 10741 10742 10742 10744 10745 10746 10747 10748 10749 10750 10751 10751 10752 10753 10754 10755 10755 10753 10750 10750 10753 10757 10756 10757 10760 10761 10762 10763 10762 10763 10763 10762 10764 10766 10768 10770 10771 10771 10769 10769 10771 10769 10769 10769 10768 10765 10764 10764 10765 10766 10766 10766 10765 10765 10764
10655 10658 10661 10664 10667 10669 10671 10673 10676 10679 10681 10684 10687 10690 10692 10694 10697 10701 10703 10706 10709 10711 10713 10714 10715 10719 10723 10723 10724 10726 10729 10731 10733 10735 10737 10737 10739 10741 10741 10741 10743 10743 10744 10744 10745 10746 10748 10749 10750 10749 10744 10741 10746 10751 10752 10751 10753 10755 10756 10757 10757 10757 10757 10756 10758 10760 10761 10763 10765 10766 10767 10765 10764 10766 10767 10767 10766 10763 10760 10758 10758 10759 10760 10761 10761 10761 10760 10759
10647 10651 10654 10657 10660 10661 10663 10666 10669 10672 10675 10678 10681 10683 10686 10688 10691 10693 10696 10698 10700 10701 10703 10707 10709 10713 10718 10719 10719 10721 10723 10725 10727 10729 10731 10732 10733 10735 10736 10736 10737 10737 10737 10738 10740 10742 10742 10744 10744 10740 10735 10737 10743 10747 10745 10745 10748 10749 10750 10751 10752 10752 10751 10750 10753 10755 10755 10760 10760 10760 10763 10762 10759 10760 10762 10764 10763 10759 10755 10754 10753 10752 10753 10755 10756 10756 10755 10755
10639 10642 10646 10649 10652 10653 10656 10659 10662 10665 10669 10672 10675 10677 10680 10681 10682 10685 10687 10689 10691 10692 10697 10701 10703 10709 10713 10714 10714 10715 10717 10719 10721 10723 10725 10726 10728 10730 10731 10731 10731 10730 10730 10732 10735 10736 10736 10740 10737 10730 10730 10735 10740 10741 10739 10740 10742 10744 10744 10744 10746 10746 10744 10745 10747 10748 10751 10755 10755 10754 10758 10758 10755 10755 10756 10757 10757 10753 10751 10750 10747 10747 10748 10749 10750 10750 10750 10750
10629 10634 10638 10640 10644 10646 10649 10652 10655 10659 10664 10667 10668 10670 10671 10671 10674 10677 10678 10681 10684 10685 10690 10694 10699 10704 10706 10707 10708 10710 10713 10714 10715 10717 10719 10720 10722 10724 10724 10724 10724 10723 10724 10728 10729 10729 10731 10734 10729 10723 10728 10732 10733 10734 10735 10736 10736 10737 10736 10738 10740 10738 10739 10741 10740 10742 10746 10749 10750 10749 10752 10753 10750 10750 10750 10749 10749 10747 10745 10743 10742 10743 10744 10743 10744 10745 10745 10745
10621 10626 10629 10632 10636 10638 10641 10645 10648 10654 10658 10660 10660 10660 10662 10663 10665 10668 10670 10673 10676 10679 10684 10689 10693 10697 10699 10702 10704 10705 10708 10709 10709 10711 10713 10715 10716 10716 10719 10718 10717 10718 10720 10723 10722 10723 10727 10727 10722 10721 10725 10727 10727 10728 10729 10730 10729 10729 10729 10732 10733 10731 10733 10736 10735 10737 10741 10743 10745 10744 10747 10750 10746 10745 10743 10740 10741 10739 10737 10737 10738 10738 10738 10738 10739 10739 10740 10740
10613 10617 10620 10624 10626 10630 10634 10637 10642 10649 10652 10653 10652 10651 10653 10655 10656 10659 10661 10664 10670 10674 10678 10682 10687 10693 10695 10696 10698 10701 10703 10703 10704 10706 10706 10708 10708 10709 10713 10712 10712 10715 10716 10714 10713 10717 10722 10721 10719 10718 10719 10720 10720 10721 10722 10723 10723 10723 10724 10725 10725 10724 10726 10730 10731 10732 10735 10737 10738 10738 10745 10749 10742 10740 10738 10732 10731 10731 10729 10731 10732 10732 10733 10734 10734 10735 10735 10735
10604 10608 10612 10615 10618 10624 10625 10630 10639 10642 10643 10644 10642 10640 10643 10646 10648 10651 10652 10655 10664 10671 10672 10677 10683 10688 10688 10689 10694 10697 10696 10698 10699 10699 10699 10700 10700 10702 10705 10706 10708 10709 10706 10705 10707 10714 10718 10716 10715 10713 10712 10713 10714 10715 10715 10715 10717 10718 10719 10718 10718 10719 10720 10723 10725 10727 10729 10732 10732 10732 10740 10746 10740 10736 10732 10724 10723 10724 10723 10724 10723 10725 10729 10729 10729 10730 10729 10729
10595 10599 10604 10606 10610 10615 10618 10628 10634 10630 10633 10635 10630 10630 10634 10639 10640 10642 10643 10644 10657 10668 10668 10671 10677 10682 10684 10685 10690 10688 10688 10695 10694 10690 10692 10692 10692 10694 10697 10699 10702 10702 10699 10697 10702 10712 10715 10709 10705 10706 10706 10707 10709 10710 10707 10706 10710 10714 10713 10711 10711 10715 10716 10716 10717 10719 10724 10727 10727 10726 10731 10738 10737 10731 10724 10719 10720 10718 10714 10714 10717 10721 10725 10724 10724 10724 10723 10723
10586 10590 10594 10597 10602 10606 10614 10623 10621 10619 10626 10623 10618 10622 10626 10629 10630 10633 10632 10631 10651 10668 10664 10665 10672 10678 10680 10679 10680 10678 10683 10692 10687 10682 10685 10684 10684 10686 10689 10693 10694 10694 10691 10689 10698 10709 10708 10700 10697 10701 10702 10703 10705 10703 10698 10697 10704 10708 10708 10705 10707 10710 10710 10710 10711 10714 10719 10721 10723 10723 10720 10725 10731 10726 10720 10719 10717 10710 10704 10706 10712 10716 10718 10718 10718 10718 10717 10717
10579 10581 10585 10590 10593 10598 10607 10612 10612 10614 10615 10609 10611 10616 10618 10620 10620 10624 10620 10620 10648 10667 10662 10662 10667 10671 10673 10672 10672 10673 10679 10684 10679 10677 10677 10675 10676 10678 10682 10685 10685 10685 10683 10685 10696 10701 10699 10695 10694 10694 10696 10698 10698 10695 10691 10692 10696 10701 10702 10701 10702 10702 10703 10704 10707 10710 10713 10716 10720 10718 10709 10711 10723 10724 10719 10719 10711 10699 10697 10700 10705 10709 10711 10712 10711 10711 10711 10710
10572 10574 10579 10582 10584 10592 10599 10604 10609 10606 10601 10602 10605 10607 10609 10609 10610 10613 10606 10615 10649 10664 10659 10659 10660 10662 10665 10665 10666 10667 10671 10674 10672 10671 10668 10666 10669 10672 10675 10677 10676 10678 10678 10681 10688 10690 10691 10692 10689 10687 10689 10692 10691 10688 10688 10688 10689 10693 10694 10695 10694 10694 10697 10699 10703 10705 10706 10712 10715 10709 10700 10702 10718 10723 10716 10713 10704 10691 10691 10694 10698 10703 10705 10705 10704 10704 10705 10704
10563 10567 10570 10572 10578 10587 10592 10598 10602 10594 10589 10594 10595 10596 10596 10595 10600 10599 10594 10617 10649 10656 10653 10653 10652 10654 10656 10656 10660 10661 10662 10663 10663 10663 10661 10661 10663 10664 10666 10667 10668 10672 10672 10674 10679 10682 10684 10684 10683 10683 10684 10684 10684 10684 10685 10683 10684 10686 10687 10688 10687 10689 10692 10693 10697 10697 10698 10707 10707 10699 10695 10697 10713 10719 10708 10704 10698 10687 10687 10690 10691 10696 10698 10697 10698 10697 10698 10698
10554 10558 10560 10565 10573 10577 10582 10592 10592 10581 10578 10583 10584 10584 10583 10585 10588 10582 10592 10625 10642 10643 10646 10647 10646 10648 10648 10648 10650 10650 10652 10653 10654 10655 10656 10656 10656 10656 10659 10660 10661 10663 10664 10668 10672 10673 10673 10675 10677 10679 10679 10679 10678 10678 10678 10677 10679 10680 10680 10682 10682 10684 10687 10688 10691 10690 10691 10700 10698 10692 10692 10694 10707 10712 10698 10695 10693 10684 10685 10686 10685 10689 10690 10690 10691 10691 10691 10692
10545 10549 10552 10558 10563 10566 10577 10585 10579 10568 10568 10572 10572 10572 10573 10574 10570 10575 10603 10626 10627 10632 10641 10641 10643 10644 10640 10639 10640 10641 10644 10646 10647 10648 10648 10648 10648 10650 10652 10652 10653 10654 10658 10663 10662 10662 10664 10668 10671 10674 10676 10675 10672 10671 10671 10672 10673 10674 10675 10676 10675 10677 10680 10683 10684 10682 10684 10690 10690 10688 10688 10692 10702 10701 10688 10686 10687 10682 10681 10680 10680 10683 10684 10683 10684 10684 10684 10684
10536 10540 10544 10549 10554 10560 10570 10572 10564 10558 10561 10565 10562 10559 10558 10555 10559 10582 10610 10617 10615 10627 10634 10632 10636 10634 10630 10632 10633 10634 10635 10636 10639 10639 10638 10639 10640 10643 10645 10645 10647 10647 10652 10654 10652 10653 10658 10663 10667 10669 10670 10668 10666 10667 10667 10667 10667 10668 10670 10668 10668 10670 10672 10674 10674 10674 10679 10683 10683 10682 10684 10691 10696 10690 10680 10678 10678 10677 10676 10675 10676 10678 10678 10678 10677 10676 10676 10676
10526 10529 10534 10540 10545 10551 10557 10558 10555 10551 10552 10554 10550 10544 10541 10542 10562 10591 10607 10608 10610 10617 10622 10622 10622 10621 10622 10625 10627 10626 10625 10626 10629 10629 10629 10630 10632 10637 10640 10640 10641 10641 10642 10644 10645 10648 10651 10657 10661 10660 10661 10662 10661 10662 10662 10661 10661 10664 10664 10661 10664 10664 10660 10662 10665 10668 10674 10676 10676 10677 10680 10686 10688 10682 10676 10672 10669 10666 10667 10669 10671 10672 10673 10672 10670 10669 10669 10669
10514 10518 10524 10530 10534 10541 10547 10549 10548 10544 10542 10544 10539 10531 10528 10540 10571 10596 10602 10603 10603 10605 10611 10611 10607 10610 10614 10617 10620 10620 10618 10619 10620 10619 10620 10623 10626 10631 10633 10634 10634 10634 10634 10636 10640 10642 10643 10650 10653 10651 10653 10655 10655 10656 10656 10655 10656 10658 10658 10657 10659 10655 10648 10652 10659 10663 10665 10668 10672 10674 10676 10679 10678 10676 10673 10666 10660 10656 10657 10662 10664 10665 10667 10665 10663 10663 10663 10663
10501 10508 10515 10521 10530 10536 10537 10540 10541 10536 10532 10531 10525 10518 10524 10547 10577 10592 10592 10592 10590 10592 10598 10597 10596 10601 10605 10608 10612 10612 10610 10611 10611 10610 10612 10614 10618 10623 10626 10628 10627 10626 10628 10628 10631 10633 10635 10642 10647 10645 10647 10648 10647 10649 10649 10649 10650 10651 10653 10652 10649 10644 10643 10647 10653 10657 10656 10660 10668 10670 10671 10671 10670 10671 10666 10657 10654 10651 10650 10654 10655 10656 10658 10657 10657 10656 10656 10656
10492 10499 10505 10516 10527 10526 10525 10530 10530 10524 10519 10516 10510 10512 10529 10553 10571 10577 10579 10580 10579 10580 10584 10585 10588 10594 10597 10600 10603 10604 10603 10602 10602 10603 10605 10607 10611 10617 10621 10622 10620 10620 10622 10620 10618 10622 10627 10635 10640 10640 10640 10640 10639 10641 10643 10644 10644 10644 10645 10643 10638 10638 10641 10642 10645 10650 10649 10652 10661 10664 10664 10664 10664 10665 10659 10650 10649 10647 10645 10646 10646 10647 10648 10649 10650 10649 10649 10649
10484 10488 10492 10509 10518 10513 10513 10517 10515 10512 10508 10500 10497 10507 10529 10549 10562 10565 10566 10568 10568 10569 10572 10575 10580 10586 10590 10593 10595 10597 10594 10594 10597 10599 10600 10600 10605 10613 10615 10613 10613 10613 10613 10609 10607 10614 10620 10625 10632 10633 10633 10633 10633 10634 10637 10638 10636 10634 10634 10633 10631 10634 10637 10635 10636 10641 10642 10643 10651 10657 10658 10659 10660 10659 10653 10647 10645 10642 10639 10637 10635 10637 10639 10640 10641 10642 10642 10642
10471 10471 10480 10499 10505 10502 10503 10504 10502 10500 10493 10484 10487 10506 10530 10549 10557 10553 10549 10554 10558 10556 10559 10568 10574 10576 10579 10584 10587 10587 10585 10587 10591 10591 10593 10595 10600 10608 10609 10606 10606 10606 10603 10600 10600 10605 10608 10612 10622 10627 10626 10626 10627 10629 10632 10630 10625 10624 10626 10628 10628 10629 10630 10630 10629 10632 10634 10635 10641 10647 10652 10655 10655 10652 10648 10644 10640 10634 10630 10628 10626 10627 10630 10632 10633 10634 10634 10635
10456 10458 10471 10488 10492 10492 10494 10491 10486 10481 10476 10475 10483 10506 10528 10540 10541 10534 10533 10540 10543 10541 10549 10560 10563 10564 10569 10575 10578 10578 10578 10580 10582 10583 10585 10590 10596 10602 10603 10600 10600 10597 10593 10590 10591 10596 10599 10603 10611 10616 10617 10619 10621 10624 10623 10619 10617 10618 10621 10623 10623 10622 10622 10622 10624 10625 10625 10627 10631 10637 10646 10652 10650 10646 10642 10637 10631 10625 10622 10621 10620 10619 10621 10623 10625 10626 10626 10626
10443 10446 10460 10475 10480 10482 10482 10474 10468 10466 10465 10468 10479 10502 10519 10522 10522 10522 10524 10527 10528 10532 10543 10550 10551 10553 10559 10565 10568 10569 10569 10569 10573 10575 10577 10584 10590 10595 10597 10594 10590 10586 10582 10580 10584 10590 10591 10593 10597 10603 10609 10613 10613 10614 10612 10611 10612 10613 10614 10617 10616 10613 10612 10613 10617 10618 10615 10618 10623 10629 10640 10647 10642 10640 10637 10629 10622 10618 10615 10615 10614 10613 10613 10614 10615 10617 10618 10618
10431 10435 10451 10464 10467 10470 10467 10457 10457 10459 10457 10462 10478 10495 10504 10506 10509 10513 10514 10515 10518 10525 10534 10538 10541 10544 10548 10554 10559 10559 10558 10560 10564 10567 10571 10578 10583 10586 10587 10584 10580 10577 10575 10575 10579 10583 10581 10582 10587 10593 10600 10603 10602 10603 10604 10604 10606 10607 10610 10611 10607 10604 10604 10603 10607 10608 10607 10613 10617 10619 10631 10640 10637 10634 10629 10620 10615 10612 10609 10609 10608 10607 10606 10605 10606 10608 10609 10609
10421 10427 10439 10447 10451 10456 10452 10444 10448 10451 10450 10460 10472 10477 10482 10490 10495 10499 10503 10506 10510 10517 10522 10527 10532 10534 10537 10543 10546 10547 10549 10550 10553 10559 10566 10570 10573 10575 10575 10574 10573 10571 10569 10571 10574 10574 10571 10571 10576 10582 10587 10590 10591 10595 10597 10598 10600 10602 10604 10601 10594 10595 10595 10593 10596 10600 10601 10609 10610 10607 10621 10633 10630 10624 10617 10610 10610 10608 10605 10605 10603 10600 10599 10598 10597 10598 10599 10600
10414 10417 10422 10430 10437 10441 10436 10431 10435 10440 10446 10456 10458 10458 10468 10477 10480 10487 10496 10501 10504 10507 10511 10517 10522 10524 10527 10530 10532 10535 10538 10539 10543 10552 10556 10558 10563 10566 10563 10564 10567 10566 10565 10567 10567 10564 10561 10560 10565 10570 10575 10580 10584 10587 10591 10593 10591 10589 10588 10587 10587 10589 10587 10585 10587 10589 10593 10603 10601 10598 10614 10624 10616 10612 10610 10605 10603 10602 10600 10601 10599 10596 10593 10591 10590 10589 10589 10591
10403 10404 10407 10417 10423 10422 10419 10421 10424 10428 10436 10445 10444 10448 10458 10463 10467 10478 10485 10489 10492 10494 10499 10506 10511 10513 10513 10515 10519 10523 10527 10530 10535 10540 10544 10547 10553 10556 10553 10554 10559 10561 10561 10561 10558 10554 10552 10552 10554 10558 10564 10572 10576 10578 10581 10579 10575 10575 10578 10580 10581 10581 10579 10578 10578 10578 10585 10593 10591 10591 10604 10609 10603 10602 10602 10597 10595 10594 10594 10593 10592 10590 10587 10586 10585 10583 10583 10584
10388 10392 10396 10403 10406 10404 10406 10411 10411 10412 10421 10428 10431 10437 10444 10450 10460 10468 10468 10472 10479 10483 10488 10494 10499 10500 10499 10502 10508 10513 10520 10525 10524 10527 10534 10540 10544 10546 10545 10546 10549 10552 10554 10553 10549 10546 10544 10543 10546 10549 10554 10562 10565 10565 10566 10564 10563 10567 10571 10572 10572 10572 10572 10569 10569 10573 10577 10577 10581 10587 10589 10591 10594 10593 10589 10587 10586 10586 10586 10585 10583 10582 10581 10580 10579 10578 10578 10577
10372 10381 10389 10392 10391 10391 10396 10399 10399 10401 10410 10416 10420 10427 10434 10442 10452 10452 10450 10459 10469 10473 10476 10480 10484 10488 10490 10496 10502 10506 10511 10513 10512 10517 10525 10529 10533 10535 10535 10537 10540 10543 10544 10541 10539 10537 10534 10535 10540 10543 10545 10550 10551 10551 10553 10554 10556 10559 10561 10562 10564 10563 10562 10559 10562 10570 10566 10559 10572 10582 10574 10575 10584 10580 10574 10575 10574 10574 10576 10575 10575 10576 10575 10575 10574 10571 10571 10570
10359 10372 10381 10380 10375 10377 10385 10391 10390 10392 10399 10404 10409 10417 10423 10429 10435 10436 10442 10454 10457 10458 10461 10464 10473 10482 10487 10490 10492 10493 10497 10499 10502 10510 10516 10518 10523 10525 10526 10528 10531 10531 10529 10527 10527 10528 10526 10529 10534 10534 10535 10538 10537 10537 10542 10545 10546 10550 10552 10555 10556 10553 10552 10552 10555 10561 10553 10548 10564 10570 10559 10563 10572 10565 10561 10562 10559 10561 10565 10565 10567 10568 10567 10567 10566 10564 10563 10561
10348 10360 10368 10366 10363 10368 10376 10380 10380 10380 10386 10391 10396 10403 10408 10414 10421 10428 10437 10442 10441 10443 10448 10453 10466 10477 10479 10478 10477 10478 10484 10490 10497 10504 10507 10507 10509 10512 10513 10516 10518 10518 10515 10515 10517 10517 10516 10521 10525 10524 10525 10527 10524 10526 10533 10535 10536 10542 10545 10547 10548 10546 10544 10544 10548 10549 10540 10539 10552 10551 10544 10554 10560 10553 10550 10549 10547 10551 10554 10554 10557 10557 10556 10558 10557 10556 10555 10553
10335 10347 10356 10355 10355 10359 10364 10366 10367 10370 10374 10376 10380 10388 10394 10400 10409 10418 10424 10427 10430 10435 10438 10445 10458 10464 10464 10464 10462 10464 10474 10484 10490 10492 10492 10492 10494 10498 10501 10503 10506 10505 10503 10504 10505 10502 10504 10510 10514 10513 10513 10516 10518 10520 10523 10525 10526 10529 10536 10541 10542 10539 10537 10537 10539 10536 10527 10529 10537 10531 10532 10549 10550 10539 10537 10539 10540 10542 10543 10543 10545 10544 10545 10547 10547 10548 10547 10545
10321 10334 10342 10343 10344 10348 10351 10354 10357 10359 10362 10364 10369 10377 10383 10390 10399 10407 10410 10413 10419 10424 10426 10435 10446 10447 10444 10445 10446 10454 10468 10475 10475 10475 10476 10477 10480 10485 10487 10489 10492 10492 10490 10490 10491 10491 10494 10499 10503 10503 10501 10507 10514 10512 10512 10515 10511 10513 10530 10540 10534 10530 10530 10527 10526 10524 10518 10520 10522 10519 10527 10540 10535 10527 10529 10532 10532 10533 10533 10533 10534 10534 10536 10537 10537 10538 10537 10535
10305 10317 10325 10329 10333 10336 10338 10342 10345 10346 10349 10355 10362 10367 10372 10380 10389 10392 10392 10396 10404 10410 10415 10424 10430 10428 10426 10431 10438 10451 10460 10458 10456 10460 10462 10463 10467 10470 10471 10473 10477 10478 10477 10478 10479 10482 10486 10489 10493 10493 10491 10499 10505 10503 10503 10501 10492 10503 10531 10537 10522 10518 10519 10516 10515 10515 10512 10512 10512 10514 10522 10526 10521 10520 10523 10522 10522 10524 10524 10524 10525 10526 10527 10527 10527 10527 10525 10524